Forside
METAR-TAF:

METAR-TAF

Lufthavne :

Price County Airport

Phillips, Wisconsin, USA

Breddekreds: 45-42N, længdekreds: 090-24W, højde: 449 m

Aktuelle vejr

Denne rapport blev lavet for 23 minutter siden, kl. 15:55 UTC
Vind stille
Temperatur 19°C
Fugtighed 88%
Tryk 1020 hPa
Sigt: 16.1 km
Spredte skyer i en højde af 8500 ft

METAR: KPBH 031555Z AUTO 00000KT 10SM SCT085 19/17 A3011 RMK AO2 T01910166

Tid: 11:18 (16:18 UTC)


TAF: fraværende

Vejrobservationer og prognoser fra mere end 4000 lufthavne (METAR og TAF).

De gule og røde prikker repræsenterer de meteorologiske stationer.

Flyt musen over at se navnet på stationen.

Så klik over at se vejr observationer og prognoser.

At skifte det kort: Klik på de grønne knapper med et sort kors for at zoome ind; på den grønne knap med en bindestreg for at zoome ud; eller på de grønne pile for tilstødende kort.


METAR-TAF: